Regional Weather Roundup
Issued by NWS

Home | Current Version | Previous Version | Text Only | Print | Product List | Glossary Off
Versions: 1 2 3 4 5 6 7 8 9 10 11 12 13 14 15 16 17 18 19 20 21 22 23 24 25 26 27 28 29 30 31 32 33 34 35 36 37 38 39 40 41 42 43 44 45 46 47 48 49 50

000
ASUS43 KIND 020309
RWRIN

WEATHER ROUNDUP FOR INDIANA
NATIONAL WEATHER SERVICE INDIANAPOLIS IN
1100 PM EDT WED JUL 01 2015

NOTE: "FAIR" INDICATES FEW OR NO CLOUDS BELOW 12,000 FEET WITH NO
SIGNIFICANT WEATHER AND/OR OBSTRUCTIONS TO VISIBILITY.

* - STATION DOES NOT REPORT WEATHER SUCH AS PRECIPITATION OR FOG.

+ - STATION NOT QUALITY CONTROLLED BY THE NATIONAL WEATHER SERVICE.
    USE DATA WITH CAUTION...ESPECIALLY DEWPOINT AND RELATIVE
    HUMIDITY OBSERVATIONS.

INZ001>003-010>013-019-020-020400-
NORTHWEST INDIANA

CITY           SKY/WX    TMP DP  RH WIND       PRES   REMARKS
GARY /AIRPORT/ MOCLDY    59  54  82 N7        30.01
KNOX *+        MOCLDY    54  52  94 N6        29.97S
LA PORTE +     MOCLDY    57  55  94 N6        29.99S
MICHIGAN CITY+ CLOUDY    55  54  94 N3        29.99S
MONTICELLO +   CLOUDY    61  53  75 NE7       29.97R
RENSSELAER +   PTCLDY    59  55  88 N7        29.98R
VALPARAISO     CLOUDY    56  52  86 CALM      29.99S

$$

LMZ046-743>745-020400-
SOUTHERN LAKE MICHIGAN

STATION/POSITION TIME  TEMP    WIND        PRES    WAVE
                       AIR SEA DIR/SP/G            HT
                 (UTC) (F)     (DEG/KT/KT) (MB)    (FT)
BURNS HARBOR     0300   58      10/ 12/ 14 1015.9S
MICHIGAN CITY    0300   58     360/ 14/ 17   N/A
5NW MICH CITY    0300   59 64   20/ 12/ 16   N/A     3

$$

INZ004-005-014>016-021>024-020400-
NORTH CENTRAL INDIANA

CITY           SKY/WX    TMP DP  RH WIND       PRES   REMARKS
GOSHEN         CLOUDY    58  52  80 N9        29.97R
LOGANSPORT +   PTCLDY    61  48  63 N7        29.97R
PERU/GRISSOM   CLEAR     62  53  74 N6        29.95R
ROCHESTER +    PTCLDY    59  55  88 NW3       29.97S
SOUTH BEND     CLOUDY    57  52  83 N7        29.99R

$$

INZ006>009-017-018-025>027-020400-
NORTHEAST INDIANA

CITY           SKY/WX    TMP DP  RH WIND       PRES   REMARKS
ANGOLA *+        N/A     61  52  72 N3        29.97R
AUBURN +       CLOUDY    61  52  72 NW5       29.97R
FORT WAYNE     MOCLDY    62  55  77 N7        29.96R
HUNTINGTON +   PTCLDY    61  53  74 N5        29.95S

$$

INZ028-029-035-036-043>045-051>053-020400-
WEST CENTRAL INDIANA

CITY           SKY/WX    TMP DP  RH WIND       PRES   REMARKS
CRAWFORDSVL +  PTCLDY    64  56  77 N10       29.95R
GREENCASTLE +  CLOUDY    70  61  73 NE5       29.94R
LAFAYETTE      MOCLDY    62  52  69 NE8       29.96R
TERRE HAUTE    MOCLDY    71  68  90 CALM      29.92R

$$

INZ030>032-037>040-046>048-054>057-064-065-020400-
CENTRAL INDIANA

CITY           SKY/WX    TMP DP  RH WIND       PRES   REMARKS
CP ATTERBURY + MOCLDY    70  64  83 CALM      29.93R
FRANKFORT +    MOCLDY    64  57  80 N7        29.98R
GREENWOOD *+   CLOUDY    72  61  68 CALM      29.94R
INDIANAPOLIS   CLOUDY    72  61  68 NE7       29.91R
-EAGLE CREEK   PTCLDY    70  63  78 N3        29.93R
KOKOMO *+      CLEAR     63  54  72 N6        29.96R
MARION +       PTCLDY    63  56  78 N5        29.96R
MT COMFORT *+  PTCLDY    70  70 100 N5        29.94R
SHELBYVILLE    MOCLDY    72  67  84 CALM      29.92R
ZIONSVILLE +   CLOUDY    68  60  73 N8        29.96R

$$

INZ033-034-041-042-049-050-058-059-020400-
EAST CENTRAL INDIANA

CITY           SKY/WX    TMP DP  RH WIND       PRES   REMARKS
MUNCIE         CLOUDY    69  61  75 N9        29.95R

$$

INZ060-061-067>069-081>083-085>088-020400-
SOUTHWEST INDIANA

CITY           SKY/WX    TMP DP  RH WIND       PRES   REMARKS
EVANSVILLE     RAIN      75  69  81 S8        29.90R
HUNTINGBURG *+ MOCLDY    72  68  88 E3        29.92R
WASHINGTON +   HVY RAIN  70  66  88 CALM      29.91R

$$

INZ062-063-066-070>080-084-089>092-020400-
SOUTH CENTRAL AND SOUTHEAST INDIANA

CITY           SKY/WX    TMP DP  RH WIND       PRES   REMARKS
BLOOMINGTON    CLOUDY    71  69  93 E5        29.92R
MADISON *+     MOCLDY    70  66  88 CALM      29.96R
NORTH VERNON + CLOUDY    72  72 100 CALM      29.94R
SEYMOUR +      CLOUDY    72  68  88 CALM      29.93R

$$




USA.gov is the U.S. government's official web portal to all federal, state and local government web resources and services.